Time,TemperatureF,DewpointF,PressureIn,WindDirection,WindDirectionDegrees,WindSpeedMPH,WindSpeedGustMPH,Humidity,HourlyPrecipIn,Conditions,Clouds,dailyrainin,SoftwareType,DateUTC
2013-08-24 00:11:00,61.0,56.0,29.90,WNW,283,0.0,0.0,85,0.00,,,0.00,,2013-08-24 07:11:00,
2013-08-24 00:22:00,61.0,57.0,29.90,NNE,32,0.0,2.0,86,0.00,,,0.00,,2013-08-24 07:22:00,
2013-08-24 00:42:00,60.0,56.0,29.91,WSW,247,0.0,3.0,88,0.00,,,0.00,,2013-08-24 07:42:00,
2013-08-24 00:53:00,60.0,57.0,29.91,WNW,291,0.0,0.0,90,0.00,,,0.00,,2013-08-24 07:53:00,
2013-08-24 01:12:00,59.0,57.0,29.91,NNW,333,0.0,0.0,93,0.00,,,0.00,,2013-08-24 08:12:00,
2013-08-24 01:22:00,59.0,57.0,29.91,WNW,286,0.0,0.0,94,0.00,,,0.00,,2013-08-24 08:22:00,
2013-08-24 01:42:00,58.0,57.0,29.91,WNW,286,0.0,0.0,95,0.01,,,0.01,,2013-08-24 08:42:00,
2013-08-24 01:52:00,58.0,57.0,29.91,WNW,286,0.0,0.0,95,0.02,,,0.02,,2013-08-24 08:52:00,
2013-08-24 02:11:00,58.0,57.0,29.91,WNW,286,0.0,0.0,96,0.03,,,0.03,,2013-08-24 09:11:00,
2013-08-24 02:22:00,58.0,57.0,29.91,WNW,286,0.0,0.0,96,0.04,,,0.04,,2013-08-24 09:22:00,
2013-08-24 02:44:00,58.0,57.0,29.91,WNW,286,0.0,0.0,96,0.04,,,0.05,,2013-08-24 09:44:00,
2013-08-24 02:53:00,58.0,57.0,29.91,WNW,286,0.0,0.0,96,0.03,,,0.05,,2013-08-24 09:53:00,
2013-08-24 03:13:00,58.0,57.0,29.91,WNW,286,0.0,0.0,96,0.03,,,0.06,,2013-08-24 10:13:00,
2013-08-24 03:23:00,58.0,57.0,29.91,WNW,286,0.0,0.0,96,0.02,,,0.06,,2013-08-24 10:23:00,
2013-08-24 03:42:00,58.0,57.0,29.91,WNW,286,0.0,0.0,96,0.01,,,0.06,,2013-08-24 10:42:00,
2013-08-24 03:53:00,58.0,57.0,29.91,WNW,286,0.0,0.0,96,0.01,,,0.06,,2013-08-24 10:53:00,
2013-08-24 04:11:00,58.0,57.0,29.91,WNW,286,0.0,0.0,97,0.00,,,0.06,,2013-08-24 11:11:00,
2013-08-24 04:22:00,58.0,57.0,29.90,WNW,286,0.0,0.0,97,0.00,,,0.06,,2013-08-24 11:22:00,
2013-08-24 04:42:00,58.0,57.0,29.90,WNW,286,0.0,0.0,97,0.00,,,0.06,,2013-08-24 11:42:00,
2013-08-24 04:52:00,58.0,57.0,29.90,WNW,286,0.0,0.0,97,0.00,,,0.06,,2013-08-24 11:52:00,
2013-08-24 05:11:00,58.0,57.0,29.90,WNW,286,0.0,0.0,97,0.00,,,0.06,,2013-08-24 12:11:00,
2013-08-24 05:21:00,58.0,57.0,29.90,WNW,286,0.0,0.0,97,0.00,,,0.06,,2013-08-24 12:21:00,
2013-08-24 05:41:00,58.0,57.0,29.90,WNW,286,0.0,0.0,97,0.00,,,0.06,,2013-08-24 12:41:00,
2013-08-24 05:52:00,58.0,57.0,29.90,WNW,286,0.0,0.0,97,0.01,,,0.07,,2013-08-24 12:52:00,
2013-08-24 06:11:00,58.0,57.0,29.90,WNW,286,0.0,0.0,97,0.02,,,0.08,,2013-08-24 13:11:00,
2013-08-24 06:22:00,57.0,56.0,29.90,WNW,286,0.0,0.0,97,0.02,,,0.08,,2013-08-24 13:22:00,
2013-08-24 06:42:00,57.0,56.0,29.90,WNW,286,0.0,0.0,97,0.02,,,0.08,,2013-08-24 13:42:00,
2013-08-24 06:52:00,57.0,56.0,29.90,WNW,286,0.0,0.0,97,0.01,,,0.08,,2013-08-24 13:52:00,
2013-08-24 07:11:00,57.0,56.0,29.90,WNW,286,0.0,0.0,97,0.00,,,0.08,,2013-08-24 14:11:00,
2013-08-24 07:21:00,58.0,57.0,29.90,WNW,286,0.0,0.0,97,0.01,,,0.09,,2013-08-24 14:21:00,
2013-08-24 07:42:00,58.0,57.0,29.91,WNW,286,0.0,0.0,97,0.01,,,0.09,,2013-08-24 14:42:00,
2013-08-24 07:52:00,58.0,57.0,29.91,WNW,286,0.0,0.0,97,0.01,,,0.09,,2013-08-24 14:52:00,
2013-08-24 08:11:00,58.0,57.0,29.91,WNW,286,0.0,0.0,97,0.01,,,0.09,,2013-08-24 15:11:00,
2013-08-24 08:21:00,58.0,57.0,29.91,WNW,286,0.0,0.0,97,0.00,,,0.09,,2013-08-24 15:21:00,
2013-08-24 08:45:00,59.0,58.0,29.91,WNW,286,0.0,0.0,97,0.00,,,0.09,,2013-08-24 15:45:00,
2013-08-24 08:54:00,59.0,58.0,29.91,WNW,286,0.0,0.0,96,0.00,,,0.09,,2013-08-24 15:54:00,
2013-08-24 09:13:00,59.0,58.0,29.91,WNW,286,0.0,0.0,95,0.00,,,0.09,,2013-08-24 16:13:00,
2013-08-24 09:23:00,60.0,59.0,29.91,WNW,286,0.0,0.0,95,0.00,,,0.09,,2013-08-24 16:23:00,
2013-08-24 09:42:00,60.0,58.0,29.91,SW,224,0.0,0.0,94,0.00,,,0.09,,2013-08-24 16:42:00,
2013-08-24 09:53:00,61.0,59.0,29.91,SW,224,0.0,0.0,94,0.00,,,0.09,,2013-08-24 16:53:00,
2013-08-24 10:12:00,62.0,58.0,29.91,WNW,290,0.0,0.0,88,0.00,,,0.09,,2013-08-24 17:12:00,
2013-08-24 10:23:00,62.0,59.0,29.91,WNW,288,0.0,0.0,90,0.00,,,0.09,,2013-08-24 17:23:00,
2013-08-24 10:42:00,63.0,60.0,29.91,West,281,0.0,0.0,90,0.00,,,0.09,,2013-08-24 17:42:00,
2013-08-24 10:52:00,63.0,60.0,29.91,NNE,13,0.0,0.0,89,0.00,,,0.09,,2013-08-24 17:52:00,
2013-08-24 11:13:00,62.0,59.0,29.91,NNE,13,0.0,0.0,91,0.00,,,0.09,,2013-08-24 18:13:00,
2013-08-24 11:22:00,63.0,60.0,29.91,NE,39,0.0,0.0,89,0.00,,,0.09,,2013-08-24 18:22:00,
2013-08-24 11:42:00,63.0,58.0,29.91,WNW,291,0.0,0.0,83,0.00,,,0.09,,2013-08-24 18:42:00,
2013-08-24 11:53:00,64.0,59.0,29.91,NE,37,0.0,3.0,83,0.00,,,0.09,,2013-08-24 18:53:00,
2013-08-24 12:12:00,66.0,58.0,29.91,West,278,0.0,0.0,76,0.00,,,0.09,,2013-08-24 19:12:00,
2013-08-24 12:21:00,67.0,56.0,29.90,SSW,213,0.0,0.0,69,0.00,,,0.09,,2013-08-24 19:21:00,
2013-08-24 12:52:00,68.0,58.0,29.89,South,186,1.0,5.0,71,0.00,,,0.09,,2013-08-24 19:52:00,
2013-08-24 13:11:00,68.0,56.0,29.89,NW,326,1.0,4.0,66,0.00,,,0.09,,2013-08-24 20:11:00,
2013-08-24 13:22:00,69.0,56.0,29.89,WNW,301,2.0,4.0,63,0.00,,,0.09,,2013-08-24 20:22:00,
2013-08-24 13:42:00,68.0,57.0,29.89,West,264,0.0,5.0,67,0.00,,,0.09,,2013-08-24 20:42:00,
2013-08-24 13:52:00,68.0,56.0,29.89,NW,316,2.0,4.0,65,0.00,,,0.09,,2013-08-24 20:52:00,
2013-08-24 14:11:00,69.0,56.0,29.89,WNW,302,0.0,2.0,64,0.00,,,0.09,,2013-08-24 21:11:00,
2013-08-24 14:22:00,69.0,55.0,29.89,SE,145,0.0,0.0,60,0.00,,,0.09,,2013-08-24 21:22:00,
2013-08-24 14:43:00,70.0,55.0,29.89,WSW,251,1.0,4.0,58,0.00,,,0.09,,2013-08-24 21:43:00,
2013-08-24 14:55:00,70.0,56.0,29.89,NNW,333,1.0,6.0,61,0.00,,,0.09,,2013-08-24 21:55:00,
2013-08-24 15:13:00,70.0,55.0,29.89,West,268,1.0,6.0,59,0.00,,,0.09,,2013-08-24 22:13:00,
2013-08-24 15:23:00,70.0,55.0,29.89,ENE,60,0.0,4.0,60,0.00,,,0.09,,2013-08-24 22:23:00,
2013-08-24 15:42:00,71.0,56.0,29.89,WSW,249,3.0,6.0,59,0.00,,,0.09,,2013-08-24 22:42:00,
2013-08-24 15:53:00,70.0,56.0,29.88,WNW,288,0.0,5.0,61,0.00,,,0.09,,2013-08-24 22:53:00,
2013-08-24 16:12:00,70.0,55.0,29.88,NNW,328,2.0,7.0,59,0.00,,,0.09,,2013-08-24 23:12:00,
2013-08-24 16:22:00,70.0,55.0,29.88,WNW,297,2.0,7.0,59,0.00,,,0.09,,2013-08-24 23:22:00,
2013-08-24 16:42:00,71.0,55.0,29.88,West,276,1.0,7.0,57,0.00,,,0.09,,2013-08-24 23:42:00,
2013-08-24 16:53:00,71.0,54.0,29.88,WNW,293,1.0,6.0,54,0.00,,,0.09,,2013-08-24 23:53:00,
2013-08-24 17:11:00,71.0,54.0,29.88,SW,216,3.0,7.0,56,0.00,,,0.09,,2013-08-25 00:11:00,
2013-08-24 17:21:00,70.0,53.0,29.88,WNW,290,2.0,6.0,54,0.00,,,0.09,,2013-08-25 00:21:00,
2013-08-24 17:41:00,72.0,53.0,29.87,West,261,0.0,3.0,52,0.00,,,0.09,,2013-08-25 00:41:00,
2013-08-24 17:52:00,72.0,53.0,29.87,West,280,2.0,7.0,51,0.00,,,0.09,,2013-08-25 00:52:00,
2013-08-24 18:11:00,71.0,52.0,29.87,SW,225,0.0,4.0,52,0.00,,,0.09,,2013-08-25 01:11:00,
2013-08-24 18:22:00,72.0,53.0,29.87,WNW,300,0.0,3.0,52,0.00,,,0.09,,2013-08-25 01:22:00,
2013-08-24 18:42:00,70.0,54.0,29.87,WNW,294,3.0,10.0,56,0.00,,,0.09,,2013-08-25 01:42:00,
2013-08-24 18:52:00,70.0,54.0,29.87,WNW,300,2.0,9.0,57,0.00,,,0.09,,2013-08-25 01:52:00,
2013-08-24 19:11:00,69.0,54.0,29.86,West,281,2.0,5.0,59,0.00,,,0.09,,2013-08-25 02:11:00,
2013-08-24 19:22:00,69.0,54.0,29.87,WNW,288,2.0,6.0,58,0.00,,,0.09,,2013-08-25 02:22:00,
2013-08-24 19:42:00,69.0,54.0,29.87,WNW,294,3.0,5.0,58,0.00,,,0.09,,2013-08-25 02:42:00,
2013-08-24 19:52:00,68.0,53.0,29.87,WNW,296,3.0,6.0,59,0.00,,,0.09,,2013-08-25 02:52:00,
2013-08-24 20:11:00,66.0,52.0,29.87,NNW,333,0.0,3.0,61,0.00,,,0.09,,2013-08-25 03:11:00,
2013-08-24 20:23:00,65.0,52.0,29.88,WNW,295,0.0,4.0,62,0.00,,,0.09,,2013-08-25 03:23:00,
2013-08-24 20:44:00,64.0,51.0,29.88,WNW,284,0.0,3.0,63,0.00,,,0.09,,2013-08-25 03:44:00,
2013-08-24 20:54:00,63.0,51.0,29.89,WNW,283,0.0,1.0,64,0.00,,,0.09,,2013-08-25 03:54:00,
2013-08-24 21:02:00,-999.0,-99.9,29.89,West,271,0.0,0.0,-999,-99.99,,,-99.99,,2013-08-25 04:02:00,
2013-08-24 21:14:00,62.0,51.0,29.89,West,271,0.0,0.0,67,0.00,,,0.09,,2013-08-25 04:14:00,
2013-08-24 21:25:00,62.0,52.0,29.90,WNW,295,0.0,3.0,70,0.00,,,0.09,,2013-08-25 04:25:00,
2013-08-24 21:43:00,61.0,52.0,29.90,WNW,293,0.0,3.0,73,0.00,,,0.09,,2013-08-25 04:43:00,
2013-08-24 21:54:00,58.0,52.0,29.91,WNW,293,0.0,0.0,79,0.00,,,0.09,,2013-08-25 04:54:00,
2013-08-24 22:12:00,56.0,51.0,29.91,WNW,293,0.0,0.0,83,0.00,,,0.09,,2013-08-25 05:12:00,
2013-08-24 22:22:00,55.0,51.0,29.91,WNW,293,0.0,0.0,86,0.00,,,0.09,,2013-08-25 05:22:00,
2013-08-24 22:42:00,54.0,51.0,29.92,WNW,293,0.0,0.0,88,0.00,,,0.09,,2013-08-25 05:42:00,
2013-08-24 22:52:00,54.0,51.0,29.92,WNW,295,0.0,0.0,90,0.00,,,0.09,,2013-08-25 05:52:00,
2013-08-24 23:12:00,54.0,51.0,29.93,NW,307,0.0,0.0,91,0.00,,,0.09,,2013-08-25 06:12:00,
2013-08-24 23:21:00,53.0,51.0,29.92,NW,307,0.0,0.0,93,0.00,,,0.09,,2013-08-25 06:21:00,
2013-08-24 23:43:00,53.0,51.0,29.93,NW,307,0.0,0.0,93,0.00,,,0.09,,2013-08-25 06:43:00,
2013-08-24 23:52:00,53.0,51.0,29.93,NW,307,0.0,0.0,93,0.00,,,0.09,,2013-08-25 06:52:00,